Tracking 29489 objects as of 9-Sep-2024
HD Live streaming from Space Station
objects crossing your sky now

ASTROCAST-0105

Track ASTROCAST-0105 now!
10-day predictions
ASTROCAST-0105 is classified as:


NORAD ID: 47517
Int'l Code: 2021-006DH
Perigee: 480.0 km
Apogee: 483.1 km
Inclination: 97.3 °
Period: 94.1 minutes
Semi major axis: 6852 km
RCS: Unknown
Launch date: January 24, 2021
Source: (SWTZ)
Launch site: AIR FORCE EASTERN TEST RANGE (AFETR)

Uplink (MHz):
Downlink (MHz):
Beacon (MHz):
Mode:
Call sign:
Status: Unknown

Your satellite tracking list
Your tracking list is empty




NASA's NSSDC Master Catalog

Two Line Element Set (TLE):
1 47517U 21006DH  24253.09783661  .00030658  00000-0  10398-2 0  9994
2 47517  97.3203 301.8343 0002306   9.5983 350.5302 15.30475478200887
Source of the keplerian elements: AFSPC